| time (UTC) | temp F | wind direction | speed MPH | gust MPH | rain 1hr in | rain 24hr in | rain mn in | humidity % | barometer mb |
| 20260904133046 | 84 | 193 | 3.0 | 7.0 | 0.00 | 0.00 | 0.00 | 73 | 1019.5 |
| 20260904131545 | 83 | 146 | 4.0 | 9.0 | 0.00 | 0.00 | 0.00 | 73 | 1019.7 |
| 20260904130044 | 84 | 122 | 2.0 | 7.0 | 0.00 | 0.00 | 0.00 | 72 | 1019.7 |
| 20260904124543 | 84 | 227 | 2.0 | 8.0 | 0.00 | 0.00 | 0.00 | 72 | 1019.7 |
| 20260904123042 | 84 | 108 | 3.0 | 9.0 | 0.00 | 0.00 | 0.00 | 72 | 1019.9 |
| 20260904121542 | 84 | 255 | 1.0 | 5.0 | 0.00 | 0.00 | 0.00 | 73 | 1020.0 |
| 20260904120047 | 85 | 164 | 2.0 | 8.0 | 0.00 | 0.00 | 0.00 | 72 | 1019.9 |
| 20260904114540 | 85 | 51 | 1.0 | 8.0 | 0.00 | 0.00 | 0.00 | 74 | 1020.0 |
| 20260904113043 | 84 | 234 | 3.0 | 8.0 | 0.00 | 0.00 | 0.00 | 75 | 1020.1 |
| 20260904111538 | 84 | 110 | 3.0 | 8.0 | 0.00 | 0.00 | 0.00 | 75 | 1020.0 |
| 20260904110038 | 83 | 11 | 2.0 | 8.0 | 0.00 | 0.00 | 0.00 | 77 | 1020.2 |
| 20260904104549 | 82 | 69 | 4.0 | 9.0 | 0.00 | 0.00 | 0.00 | 77 | 1020.1 |
| 20260904103036 | 83 | 161 | 5.0 | 9.0 | 0.00 | 0.00 | 0.00 | 76 | 1020.3 |
| 20260904101535 | 84 | 129 | 2.0 | 8.0 | 0.00 | 0.00 | 0.00 | 73 | 1020.3 |
| 20260904100038 | 85 | 141 | 2.0 | 9.0 | 0.00 | 0.00 | 0.00 | 72 | 1020.4 |
| 20260904094535 | 86 | 177 | 1.0 | 6.0 | 0.00 | 0.00 | 0.00 | 68 | 1020.5 |
| 20260904093031 | 86 | 289 | 2.0 | 6.0 | 0.00 | 0.00 | 0.00 | 63 | 1020.5 |
| 20260904091527 | 85 | 150 | 2.0 | 6.0 | 0.00 | 0.00 | 0.00 | 60 | 1020.3 |
| 20260904090025 | 84 | 115 | 1.0 | 6.0 | 0.00 | 0.00 | 0.00 | 61 | 1020.2 |
| 20260904084532 | 84 | 52 | 1.0 | 5.0 | 0.00 | 0.00 | 0.00 | 61 | 1020.1 |
| 20260904083021 | 83 | 117 | 2.0 | 5.0 | 0.00 | 0.00 | 0.00 | 62 | 1020.0 |
| 20260904081519 | 84 | 62 | 0.0 | 3.0 | 0.00 | 0.00 | 0.00 | 61 | 1019.8 |
| 20260904080019 | 84 | 152 | 0.0 | 2.0 | 0.00 | 0.00 | 0.00 | 62 | 1019.9 |
| 20260904074519 | 84 | 207 | 0.0 | 2.0 | 0.00 | 0.00 | 0.00 | 62 | 1019.8 |
| 20260904073014 | 83 | 127 | 0.0 | 1.0 | 0.00 | 0.00 | 0.00 | 63 | 1019.7 |
| 20260904071511 | 81 | 71 | 0.0 | 2.0 | 0.00 | 0.00 | 0.00 | 67 | 1019.7 |
| 20260904070015 | 80 | 86 | 0.0 | 2.0 | 0.00 | 0.00 | 0.00 | 69 | 1019.8 |
| 20260904064510 | 79 | 25 | 0.0 | 1.0 | 0.00 | 0.00 | 0.00 | 71 | 1019.7 |
| 20260904063101 | 77 | 25 | 1.0 | 2.0 | 0.00 | 0.00 | 0.00 | 72 | 1019.7 |
| 20260904061558 | 76 | 3 | 1.0 | 2.0 | 0.00 | 0.00 | 0.00 | 72 | 1019.6 |
| 20260904060058 | 75 | 15 | 1.0 | 3.0 | 0.00 | 0.00 | 0.00 | 73 | 1019.7 |
| 20260904054602 | 74 | 345 | 0.0 | 5.0 | 0.00 | 0.00 | 0.00 | 74 | 1019.6 |
| 20260904053103 | 73 | 315 | 2.0 | 6.0 | 0.00 | 0.00 | 0.00 | 74 | 1019.5 |
| 20260904051555 | 72 | 347 | 2.0 | 5.0 | 0.00 | 0.00 | 0.00 | 75 | 1019.5 |
| 20260904050054 | 73 | 344 | 1.0 | 6.0 | 0.00 | 0.00 | 0.00 | 74 | 1019.3 |
| 20260904044553 | 73 | 321 | 2.0 | 5.0 | 0.00 | 0.00 | 0.00 | 74 | 1019.4 |
| 20260904043104 | 73 | 294 | 2.0 | 7.0 | 0.00 | 0.00 | 0.00 | 73 | 1019.2 |
| 20260904041549 | 73 | 323 | 3.0 | 7.0 | 0.00 | 0.00 | 0.00 | 72 | 1019.2 |
| 20260904040049 | 73 | 1 | 2.0 | 4.0 | 0.00 | 0.00 | 0.00 | 71 | 1019.2 |
| 20260904034548 | 73 | 315 | 2.0 | 4.0 | 0.00 | 0.00 | 0.00 | 72 | 1019.3 |
| 20260904033048 | 74 | 339 | 1.0 | 4.0 | 0.00 | 0.00 | 0.00 | 73 | 1019.4 |
| 20260904031546 | 74 | 337 | 1.0 | 7.0 | 0.00 | 0.00 | 0.00 | 71 | 1019.3 |
| 20260904030046 | 73 | 338 | 2.0 | 7.0 | 0.00 | 0.00 | 0.00 | 71 | 1019.3 |
| 20260904024543 | 74 | 347 | 3.0 | 7.0 | 0.00 | 0.00 | 0.00 | 71 | 1019.4 |
| 20260904023044 | 74 | 313 | 0.0 | 4.0 | 0.00 | 0.00 | 0.00 | 71 | 1019.3 |
| 20260904021550 | 74 | 335 | 2.0 | 6.0 | 0.00 | 0.00 | 0.00 | 70 | 1019.0 |
| 20260904020041 | 74 | 309 | 1.0 | 7.0 | 0.00 | 0.00 | 0.00 | 70 | 1019.1 |
| 20260904014541 | 75 | 356 | 1.0 | 4.0 | 0.00 | 0.00 | 0.00 | 70 | 1019.2 |
| 20260904013038 | 75 | 340 | 1.0 | 6.0 | 0.00 | 0.00 | 0.00 | 70 | 1019.2 |
| 20260904011548 | 75 | 349 | 1.0 | 4.0 | 0.00 | 0.00 | 0.00 | 69 | 1019.2 |
| 20260904010036 | 75 | 357 | 1.0 | 3.0 | 0.00 | 0.00 | 0.00 | 71 | 1019.4 |
| 20260904004535 | 75 | 359 | 2.0 | 7.0 | 0.00 | 0.00 | 0.00 | 70 | 1019.2 |
| 20260904003034 | 75 | 325 | 4.0 | 8.0 | 0.00 | 0.00 | 0.00 | 72 | 1019.3 |
| 20260904001532 | 75 | 302 | 4.0 | 10.0 | 0.00 | 0.00 | 0.00 | 72 | 1019.4 |
| 20260904000031 | 75 | 352 | 3.0 | 7.0 | 0.00 | 0.00 | 0.00 | 72 | 1019.5 |
| 20260903234528 | 75 | 355 | 3.0 | 8.0 | 0.00 | 0.00 | 0.00 | 73 | 1019.7 |
| 20260903233027 | 75 | 25 | 3.0 | 7.0 | 0.00 | 0.00 | 0.00 | 74 | 1019.7 |
| 20260903231527 | 76 | 320 | 2.0 | 7.0 | 0.00 | 0.00 | 0.00 | 74 | 1019.8 |
| 20260903230034 | 75 | 24 | 3.0 | 9.0 | 0.00 | 0.00 | 0.00 | 75 | 1019.8 |
| 20260903224532 | 75 | 350 | 2.0 | 7.0 | 0.00 | 0.00 | 0.00 | 75 | 1019.8 |
| 20260903223020 | 75 | 19 | 4.0 | 8.0 | 0.00 | 0.00 | 0.00 | 76 | 1019.8 |
| 20260903221518 | 75 | 339 | 1.0 | 5.0 | 0.00 | 0.00 | 0.00 | 75 | 1019.9 |
| 20260903220028 | 75 | 343 | 2.0 | 7.0 | 0.00 | 0.00 | 0.00 | 74 | 1019.9 |
| 20260903214515 | 75 | 306 | 2.0 | 6.0 | 0.00 | 0.00 | 0.00 | 75 | 1019.7 |
| 20260903213022 | 75 | 11 | 3.0 | 7.0 | 0.00 | 0.00 | 0.00 | 75 | 1019.8 |
| 20260903211515 | 75 | 289 | 3.0 | 6.0 | 0.00 | 0.00 | 0.00 | 75 | 1019.9 |
| 20260903210021 | 75 | 331 | 4.0 | 8.0 | 0.00 | 0.00 | 0.00 | 75 | 1019.9 |
| 20260903204516 | 76 | 11 | 2.0 | 6.0 | 0.00 | 0.00 | 0.00 | 74 | 1020.0 |
| 20260903203013 | 76 | 327 | 2.0 | 6.0 | 0.00 | 0.00 | 0.00 | 73 | 1020.0 |
| 20260903201521 | 76 | 326 | 1.0 | 5.0 | 0.00 | 0.00 | 0.00 | 72 | 1020.0 |
| 20260903200012 | 76 | 328 | 2.0 | 5.0 | 0.00 | 0.00 | 0.00 | 72 | 1020.0 |
| 20260903194511 | 76 | 342 | 3.0 | 7.0 | 0.00 | 0.00 | 0.00 | 74 | 1020.0 |
| 20260903193012 | 76 | 309 | 2.0 | 6.0 | 0.00 | 0.00 | 0.00 | 73 | 1019.7 |
| 20260903191510 | 76 | 321 | 1.0 | 5.0 | 0.00 | 0.00 | 0.00 | 71 | 1019.4 |
| 20260903190009 | 77 | 309 | 2.0 | 4.0 | 0.00 | 0.00 | 0.00 | 71 | 1019.5 |
| 20260903184509 | 77 | 333 | 2.0 | 5.0 | 0.00 | 0.00 | 0.00 | 72 | 1019.4 |
| 20260903183008 | 77 | 330 | 1.0 | 7.0 | 0.00 | 0.00 | 0.00 | 74 | 1019.4 |
| 20260903181510 | 77 | 335 | 1.0 | 3.0 | 0.00 | 0.00 | 0.00 | 74 | 1019.3 |
| 20260903180009 | 78 | 354 | 1.0 | 3.0 | 0.00 | 0.00 | 0.00 | 74 | 1019.2 |
| 20260903174506 | 79 | 245 | 0.0 | 1.0 | 0.00 | 0.00 | 0.00 | 73 | 1019.2 |
| 20260903173021 | 81 | 245 | 0.0 | 1.0 | 0.00 | 0.00 | 0.00 | 70 | 1019.2 |
| 20260903171505 | 82 | 245 | 0.0 | 2.0 | 0.00 | 0.00 | 0.00 | 68 | 1019.2 |
| 20260903170004 | 83 | 198 | 0.0 | 3.0 | 0.00 | 0.00 | 0.00 | 67 | 1019.2 |
| 20260903164503 | 83 | 134 | 0.0 | 2.0 | 0.00 | 0.00 | 0.00 | 67 | 1019.2 |
| 20260903163005 | 83 | 202 | 2.0 | 5.0 | 0.00 | 0.00 | 0.00 | 67 | 1019.3 |
| 20260903161503 | 84 | 219 | 2.0 | 4.0 | 0.00 | 0.00 | 0.00 | 66 | 1019.4 |
| 20260903160100 | 84 | 193 | 1.0 | 6.0 | 0.00 | 0.00 | 0.00 | 67 | 1019.4 |
| 20260903154602 | 83 | 81 | 1.0 | 6.0 | 0.00 | 0.00 | 0.00 | 66 | 1019.4 |
| 20260903153059 | 83 | 91 | 2.0 | 6.0 | 0.00 | 0.00 | 0.00 | 68 | 1019.3 |
| 20260903151609 | 83 | 135 | 3.0 | 7.0 | 0.00 | 0.00 | 0.00 | 67 | 1019.4 |
| 20260903150104 | 84 | 133 | 1.0 | 9.0 | 0.00 | 0.00 | 0.00 | 67 | 1019.3 |
| 20260903144557 | 84 | 113 | 1.0 | 8.0 | 0.00 | 0.00 | 0.00 | 69 | 1019.3 |
| 20260903143105 | 83 | 212 | 3.0 | 8.0 | 0.00 | 0.00 | 0.00 | 68 | 1019.3 |
| 20260903141556 | 84 | 105 | 2.0 | 7.0 | 0.00 | 0.00 | 0.00 | 69 | 1019.4 |
| 20260903140055 | 83 | 84 | 2.0 | 7.0 | 0.00 | 0.00 | 0.00 | 71 | 1019.4 |
| 20260903134605 | 84 | 124 | 3.0 | 7.0 | 0.00 | 0.00 | 0.00 | 72 | 1019.5 |